Temp
59 59 57 57 57 58 59 58 59 60 60 61 61 61 59 57 56 57 57 70 70 70 71 71 72 72 72 72 72 72 72 72 73 73 73 74 76 76 76 76 75 74 74
61 59 58 59 58 59 59 59 59 58 59 59 61 62 59 58 57 56 57 59 69 69 69 69 70 70 71 71 70 70 70 71 71 72 72 72 72 73 75 76 75 75 75
62 60 59 58 58 59 60 59 58 58 57 59 57 59 60 59 59 56 57 56 61 68 68 68 68 68 69 69 69 69 69 69 70 70 70 71 72 72 72 73 75 75 75
63 60 59 58 59 58 58 57 56 55 55 55 54 55 57 58 59 57 57 56 55 59 64 67 67 66 67 68 68 68 68 68 68 69 69 69 70 71 72 72 72 74 75
64 60 59 58 58 57 56 57 55 55 54 54 56 55 54 55 57 61 57 57 55 55 55 64 68 67 67 68 68 68 67 67 68 67 68 68 69 70 70 72 71 71 72
63 60 58 58 57 55 55 54 55 54 54 54 62 59 53 54 54 54 55 59 55 56 55 56 55 57 68 68 69 69 68 67 68 67 67 67 68 69 70 70 71 71 71
63 60 57 57 56 57 55 55 53 54 52 52 52 51 51 52 53 54 54 54 55 56 54 55 53 54 56 69 69 70 70 69 68 66 66 67 67 68 69 69 69 71 71
64 61 59 57 56 54 54 54 53 50 51 51 49 46 47 50 50 54 52 56 54 54 55 57 54 54 54 54 57 67 68 68 67 67 67 66 66 67 68 68 69 69 70
64 65 60 59 57 56 56 52 52 52 49 49 51 49 44 45 45 49 51 52 53 53 53 54 56 57 55 53 59 61 66 66 67 67 66 66 66 66 67 67 68 68 69
65 65 63 60 59 57 54 56 55 51 50 49 49 54 48 48 45 45 48 49 51 54 52 51 53 55 55 53 59 61 65 67 67 67 66 67 66 66 66 67 67 68 68
64 65 63 61 60 57 59 54 53 52 50 49 48 47 46 46 45 43 42 46 49 49 51 51 51 51 53 53 53 57 65 66 66 66 66 66 66 66 66 66 67 68 68
61 63 63 63 62 60 56 56 55 52 51 49 49 48 47 46 45 43 41 42 44 47 49 50 50 50 51 52 58 63 65 66 66 66 66 66 66 66 66 66 66 67 66
62 59 63 61 59 60 59 57 54 54 52 52 49 48 48 48 47 45 44 42 43 44 47 47 50 50 54 50 52 61 62 65 65 66 65 65 65 65 65 66 66 66 66
63 65 62 63 63 60 59 57 56 55 53 51 50 48 47 48 48 47 45 43 40 40 42 45 47 49 49 50 54 63 55 63 64 65 65 65 65 65 65 65 65 65 65
64 63 62 62 62 59 59 58 56 55 55 52 50 49 48 47 47 47 46 45 43 37 37 42 44 47 49 50 53 53 52 59 63 63 63 63 64 64 64 65 65 65 64
61 63 62 62 61 60 59 57 56 55 53 50 51 49 47 47 47 46 46 45 44 42 38 42 44 46 49 55 54 54 52 59 60 62 62 61 62 63 63 63 63 63 62
62 64 63 61 60 59 58 57 56 54 54 51 50 51 48 48 46 46 45 44 44 42 39 42 44 46 46 47 50 49 50 49 49 59 61 61 61 61 62 62 62 61 62
63 64 62 62 61 61 59 58 55 56 54 51 50 49 50 53 46 46 45 45 44 44 42 41 41 44 45 46 46 45 51 55 52 58 60 61 61 61 61 61 60 60 60
60 63 64 62 62 61 60 57 57 56 55 54 51 51 50 48 45 44 45 44 44 48 43 41 40 42 43 43 45 45 45 49 53 57 59 60 60 60 61 60 59 59 59
57 59 58 63 62 62 60 57 56 55 53 53 53 51 50 49 47 46 46 45 45 43 42 41 40 40 41 44 42 44 44 47 48 54 57 59 59 59 60 59 59 58 57
55 56 54 59 62 61 60 56 56 53 52 51 51 52 50 52 57 51 48 44 43 42 41 40 40 40 42 42 40 45 44 46 48 49 49 51 53 53 54 57 57 57 57
53 52 51 55 59 62 61 59 56 53 53 51 50 49 50 58 58 61 60 56 49 43 41 39 41 41 42 44 45 45 42 42 42 53 50 49 53 52 53 53 56 56 56
50 48 49 53 58 60 62 61 59 55 52 52 50 49 51 56 55 51 59 60 57 57 56 45 41 42 44 45 43 43 44 45 45 50 49 46 51 49 52 54 56 56 56
48 47 48 50 59 59 62 61 59 53 51 49 49 48 48 48 48 48 47 46 46 46 47 49 46 45 44 48 48 49 48 48 48 49 50 44 49 48 51 52 55 56 56
48 47 48 49 57 57 61 61 57 52 49 48 49 48 47 46 55 56 47 44 43 44 53 55 56 56 55 55 55 49 46 44 44 46 49 46 48 48 49 48 50 55 55
49 49 48 49 57 58 60 61 54 53 48 48 47 48 54 49 58 57 45 42 40 41 43 43 45 47 49 48 53 50 47 43 44 43 48 47 48 48 46 49 51 52 53
MSLP
1017.23 1017.45 1017.72 1017.90 1017.94 1017.94 1018.01 1018.25 1018.27 1018.32 1018.41 1018.45 1018.63 1018.81 1018.96 1019.22 1019.49 1019.63 1019.64 1019.45 1019.63 1019.69 1019.72 1019.67 1019.54 1019.46 1019.41 1019.34 1019.32 1019.32 1019.19 1019.07 1018.91 1018.79 1018.68 1018.62 1018.51 1018.60 1018.70 1018.86 1019.03 1019.27 1019.43
1016.65 1017.15 1017.46 1017.60 1017.59 1017.57 1017.70 1017.87 1018.19 1018.31 1018.41 1018.43 1018.50 1018.68 1018.94 1019.20 1019.43 1019.62 1019.72 1019.70 1019.66 1019.80 1019.92 1019.94 1019.83 1019.67 1019.61 1019.59 1019.57 1019.57 1019.50 1019.37 1019.22 1019.08 1018.95 1018.88 1018.78 1018.61 1018.45 1018.50 1018.67 1018.88 1019.09
1016.34 1016.85 1017.20 1017.44 1017.34 1017.33 1017.47 1017.72 1018.03 1018.17 1018.44 1018.51 1018.72 1018.75 1018.80 1018.97 1019.23 1019.53 1019.65 1019.84 1019.83 1019.85 1019.99 1020.08 1020.09 1019.95 1019.82 1019.78 1019.77 1019.73 1019.68 1019.56 1019.43 1019.29 1019.16 1019.02 1018.90 1018.77 1018.57 1018.37 1018.32 1018.45 1018.64
1015.86 1016.50 1016.97 1017.25 1017.12 1017.25 1017.41 1017.70 1018.02 1018.29 1018.49 1018.60 1018.77 1018.90 1018.92 1018.81 1018.95 1019.34 1019.52 1019.70 1019.92 1019.96 1019.96 1020.05 1020.10 1020.15 1020.03 1019.90 1019.84 1019.80 1019.76 1019.67 1019.59 1019.49 1019.32 1019.15 1018.98 1018.85 1018.66 1018.50 1018.30 1018.10 1018.18
1015.40 1016.11 1016.55 1016.74 1016.84 1017.15 1017.42 1017.62 1017.90 1018.09 1018.61 1018.74 1018.82 1018.86 1018.99 1018.95 1018.81 1019.02 1019.39 1019.47 1019.65 1019.78 1019.89 1019.80 1019.81 1019.84 1019.97 1019.93 1019.87 1019.76 1019.79 1019.71 1019.63 1019.55 1019.42 1019.26 1019.06 1018.88 1018.74 1018.53 1018.43 1018.27 1018.15
1014.72 1015.51 1016.07 1016.36 1016.70 1017.09 1017.27 1017.45 1017.70 1018.01 1018.28 1018.53 1018.60 1018.72 1018.91 1018.91 1018.78 1018.95 1019.21 1019.20 1019.44 1019.49 1019.59 1019.64 1019.69 1019.74 1019.60 1019.71 1019.62 1019.56 1019.69 1019.66 1019.57 1019.54 1019.41 1019.27 1019.12 1018.93 1018.72 1018.53 1018.34 1018.18 1018.27
1013.86 1014.65 1015.49 1016.05 1016.42 1016.61 1016.72 1017.09 1017.55 1017.94 1018.27 1018.38 1018.98 1019.11 1018.88 1018.73 1018.79 1018.77 1018.90 1019.10 1019.31 1019.38 1019.53 1019.43 1019.47 1019.54 1019.55 1019.26 1019.32 1019.33 1019.30 1019.37 1019.47 1019.50 1019.42 1019.28 1019.09 1018.90 1018.67 1018.49 1018.37 1018.12 1018.12
1013.09 1013.93 1014.80 1015.56 1016.05 1016.48 1016.77 1016.94 1017.15 1017.83 1018.10 1018.16 1018.89 1019.64 1019.53 1019.12 1018.84 1018.64 1018.70 1018.85 1018.96 1019.05 1019.30 1019.19 1019.25 1019.25 1019.32 1019.28 1019.21 1019.14 1019.16 1019.23 1019.35 1019.34 1019.25 1019.24 1019.09 1018.86 1018.62 1018.43 1018.31 1018.16 1017.97
1012.21 1012.70 1013.53 1014.54 1015.36 1015.83 1016.24 1016.47 1016.64 1017.08 1017.85 1018.09 1018.02 1018.59 1019.48 1019.50 1019.26 1018.80 1018.73 1018.73 1018.85 1018.86 1018.94 1018.90 1018.85 1018.85 1018.92 1019.04 1018.95 1018.92 1018.93 1019.06 1019.04 1018.97 1019.05 1019.02 1018.90 1018.71 1018.54 1018.35 1018.18 1018.02 1017.86
1011.70 1012.06 1012.59 1013.36 1014.36 1015.16 1015.67 1015.87 1016.15 1016.41 1016.95 1017.79 1018.18 1017.91 1018.22 1018.59 1019.28 1019.44 1019.00 1018.94 1018.79 1018.68 1018.72 1018.90 1018.73 1018.57 1018.64 1018.72 1018.63 1018.62 1018.56 1018.54 1018.58 1018.65 1018.71 1018.58 1018.53 1018.42 1018.32 1018.15 1017.96 1017.75 1017.64
1011.16 1011.48 1011.93 1012.59 1013.34 1014.17 1014.85 1015.33 1015.78 1015.98 1016.10 1016.83 1017.19 1017.76 1018.23 1018.47 1018.69 1019.28 1019.44 1019.31 1019.03 1018.69 1018.66 1018.57 1018.52 1018.51 1018.36 1018.37 1018.41 1018.30 1018.13 1018.08 1018.09 1018.20 1018.17 1018.19 1018.17 1018.11 1018.01 1017.88 1017.68 1017.43 1017.26
1010.94 1010.97 1011.33 1011.87 1012.49 1013.11 1013.86 1014.55 1015.17 1015.60 1015.83 1016.01 1016.42 1016.80 1017.25 1017.99 1018.39 1018.78 1019.40 1019.38 1019.37 1018.87 1018.45 1018.32 1018.27 1018.18 1018.07 1018.06 1017.93 1017.72 1017.62 1017.51 1017.54 1017.63 1017.71 1017.76 1017.71 1017.64 1017.55 1017.46 1017.30 1017.19 1017.18
1010.45 1010.31 1010.59 1011.11 1011.64 1012.14 1012.70 1013.46 1014.25 1014.90 1015.24 1015.62 1015.87 1016.20 1016.37 1016.84 1017.20 1017.81 1018.59 1019.13 1019.33 1019.16 1018.68 1018.28 1018.03 1017.87 1017.77 1017.86 1017.81 1017.57 1017.38 1017.26 1017.18 1017.14 1017.13 1017.08 1017.09 1017.06 1017.04 1016.96 1016.81 1016.69 1016.75
1009.86 1009.44 1009.45 1009.81 1010.40 1011.14 1011.84 1012.43 1013.22 1013.89 1014.50 1014.97 1015.26 1015.52 1015.90 1016.18 1016.52 1017.14 1017.81 1018.70 1019.48 1019.50 1019.15 1018.67 1017.98 1017.61 1017.63 1017.59 1017.47 1017.19 1017.19 1016.96 1016.79 1016.65 1016.54 1016.53 1016.49 1016.42 1016.36 1016.26 1016.21 1016.18 1016.13
1009.29 1008.71 1008.63 1008.84 1009.45 1010.14 1010.85 1011.57 1012.19 1012.99 1013.64 1014.21 1014.53 1014.86 1015.25 1015.59 1015.93 1016.45 1016.93 1017.63 1018.49 1019.49 1019.40 1018.53 1018.20 1017.53 1017.37 1017.20 1016.98 1016.81 1016.74 1016.56 1016.34 1016.12 1015.98 1015.92 1015.94 1015.83 1015.69 1015.57 1015.45 1015.34 1015.58
1008.71 1008.01 1007.78 1007.86 1008.43 1009.13 1009.84 1010.65 1011.35 1012.01 1012.79 1013.48 1013.94 1014.32 1014.70 1015.03 1015.53 1016.06 1016.49 1016.95 1017.52 1018.26 1018.91 1018.20 1017.82 1017.23 1016.93 1016.65 1016.51 1016.26 1016.10 1015.93 1015.82 1015.65 1015.36 1015.25 1015.23 1015.20 1015.03 1014.96 1014.93 1014.94 1015.16
1008.50 1007.38 1006.96 1007.02 1007.52 1008.23 1008.99 1009.66 1010.46 1011.11 1011.88 1012.73 1013.22 1013.67 1014.15 1014.47 1015.16 1015.61 1016.05 1016.43 1016.88 1017.46 1018.03 1017.54 1017.04 1016.58 1016.56 1016.38 1016.14 1015.92 1015.73 1015.58 1015.31 1014.95 1014.62 1014.40 1014.30 1014.29 1014.24 1014.34 1014.48 1014.56 1014.42
1008.54 1006.76 1006.54 1006.41 1006.55 1007.14 1008.03 1008.59 1009.58 1010.21 1011.03 1011.94 1012.61 1013.15 1013.52 1013.99 1014.70 1015.11 1015.62 1016.14 1016.32 1016.66 1017.20 1017.06 1016.68 1016.41 1016.11 1015.83 1015.87 1015.68 1015.25 1014.91 1014.69 1014.26 1013.89 1013.60 1013.45 1013.37 1013.31 1013.37 1013.49 1013.53 1013.62
1007.46 1006.27 1006.23 1006.40 1005.65 1006.12 1007.03 1007.70 1008.47 1009.31 1010.10 1010.87 1011.82 1012.39 1012.89 1013.49 1014.30 1014.81 1015.11 1015.54 1015.71 1015.92 1016.30 1016.52 1016.51 1016.13 1015.83 1015.60 1015.37 1014.95 1014.73 1014.32 1013.85 1013.34 1012.91 1012.52 1012.32 1012.24 1012.21 1012.34 1012.44 1012.55 1012.59
1007.35 1006.78 1006.20 1006.20 1005.04 1004.95 1005.76 1006.70 1007.69 1008.65 1009.52 1010.26 1011.06 1011.80 1012.33 1012.81 1013.40 1014.03 1014.49 1014.90 1015.25 1015.71 1015.76 1015.94 1015.92 1015.72 1015.48 1014.92 1014.79 1014.64 1014.02 1013.48 1013.19 1012.70 1012.15 1011.72 1011.52 1011.39 1011.33 1011.34 1011.38 1011.46 1011.61
1006.97 1006.86 1006.29 1005.80 1004.24 1004.03 1004.61 1005.85 1006.78 1007.91 1008.96 1009.84 1010.59 1011.23 1011.71 1012.11 1012.56 1013.12 1013.67 1014.33 1014.84 1015.06 1015.21 1015.42 1015.38 1015.13 1014.87 1014.54 1014.33 1013.53 1013.11 1012.73 1012.21 1011.90 1011.23 1010.81 1010.70 1010.46 1010.26 1010.20 1010.12 1010.25 1010.51
1006.46 1006.01 1005.91 1005.39 1004.06 1003.34 1003.66 1004.78 1005.69 1007.10 1008.17 1009.11 1009.99 1010.76 1011.17 1011.62 1011.99 1012.33 1012.71 1013.32 1013.78 1014.07 1014.43 1014.71 1014.59 1014.44 1014.02 1013.48 1013.16 1012.88 1012.59 1012.05 1010.46 1010.27 1009.63 1008.98 1009.21 1008.83 1008.93 1008.96 1008.96 1009.23 1009.55
1005.70 1005.38 1005.25 1004.58 1003.50 1002.93 1002.89 1003.94 1004.94 1006.23 1007.59 1008.52 1009.44 1010.26 1010.88 1011.14 1011.42 1011.79 1012.21 1012.61 1012.91 1013.05 1013.14 1013.33 1013.69 1013.52 1013.02 1012.65 1012.53 1012.11 1011.46 1010.50 1009.21 1008.56 1008.63 1007.70 1007.92 1007.44 1007.62 1007.58 1007.86 1008.13 1008.49
1004.58 1004.47 1004.40 1003.95 1002.62 1002.59 1002.35 1003.31 1004.26 1005.69 1007.07 1008.08 1008.89 1009.71 1010.33 1010.76 1011.07 1011.66 1012.20 1012.67 1012.79 1012.85 1012.78 1012.74 1012.70 1012.41 1012.11 1011.81 1011.42 1010.58 1009.57 1008.82 1007.93 1007.35 1007.17 1006.23 1006.00 1005.90 1006.12 1006.38 1006.76 1007.14 1007.63
1003.86 1003.60 1003.80 1003.21 1002.02 1001.88 1001.83 1002.61 1003.89 1005.28 1006.72 1007.83 1008.56 1009.23 1009.88 1010.45 1010.85 1011.41 1012.03 1012.43 1012.57 1012.61 1012.22 1012.05 1011.84 1011.53 1011.27 1010.69 1009.95 1009.41 1008.44 1007.70 1006.28 1005.35 1005.11 1005.02 1004.44 1004.60 1004.99 1005.58 1006.19 1006.39 1006.99
1002.88 1002.62 1002.87 1002.45 1001.52 1001.18 1001.33 1002.21 1003.55 1004.65 1006.37 1007.58 1008.40 1009.03 1009.45 1010.01 1010.48 1010.88 1011.48 1012.11 1012.33 1012.31 1012.12 1011.96 1011.56 1011.30 1010.87 1009.88 1008.99 1008.44 1007.47 1006.23 1004.86 1003.67 1002.94 1003.38 1002.99 1003.64 1004.18 1004.95 1005.54 1005.81 1006.63
Wind_Speed
6 5 5 4 5 4 4 4 4 3 3 4 4 4 4 6 6 3 2 10 8 6 5 5 6 6 7 7 8 8 10 9 10 10 11 10 5 8 9 10 10 9 8
6 5 5 5 5 5 4 5 5 4 3 3 3 4 4 5 6 6 3 4 9 7 6 5 5 6 6 7 7 7 8 7 8 8 10 11 10 9 9 12 11 12 11
7 7 5 5 5 5 6 4 3 3 3 3 3 3 3 4 5 6 5 3 4 7 6 5 4 4 4 5 5 5 6 7 6 7 8 8 9 9 11 8 12 13 13
8 7 5 5 5 5 4 4 4 3 3 3 2 3 3 4 5 6 5 5 4 3 5 5 3 2 2 2 3 3 4 5 6 7 7 7 8 8 9 9 12 10 15
8 6 5 5 6 5 4 4 2 3 3 3 3 3 3 4 5 4 6 7 7 5 4 5 5 3 5 1 1 2 3 4 6 7 7 7 8 9 9 9 8 9 11
8 7 5 6 6 5 5 3 4 2 3 4 3 0 3 4 4 5 6 3 4 6 5 5 3 3 4 7 3 3 1 4 6 6 7 8 9 9 9 10 10 9 11
10 9 6 6 6 7 7 6 4 6 3 3 3 3 3 4 5 4 5 5 5 6 5 5 4 3 3 5 4 7 6 6 5 5 8 9 9 9 10 10 10 11 12
11 9 9 7 7 5 6 7 6 3 3 4 4 2 2 4 2 4 3 4 5 5 5 6 5 5 5 3 5 8 6 6 4 6 7 8 9 10 10 10 11 11 12
13 14 12 9 8 7 8 6 6 8 5 3 4 5 2 5 1 1 4 4 5 4 3 4 5 5 4 4 5 3 4 5 8 8 8 8 10 10 11 12 12 13 14
13 14 13 12 11 8 7 9 6 5 6 5 1 2 2 4 3 1 2 2 3 4 4 2 3 2 3 4 6 8 9 8 9 8 9 12 12 11 12 13 14 14 15
12 14 14 13 12 9 10 8 7 6 5 5 4 3 1 1 2 3 3 3 2 1 3 2 3 3 3 3 4 6 11 10 10 10 11 11 12 13 14 15 15 15 16
8 12 13 13 12 11 10 10 8 8 7 5 4 5 5 5 4 4 2 3 3 4 2 2 2 2 3 4 6 10 13 14 13 12 12 12 14 15 14 14 15 15 17
7 10 14 13 11 12 12 10 9 9 9 8 7 5 4 5 4 4 4 3 3 3 3 2 4 3 3 3 4 7 6 8 9 12 14 15 15 15 16 17 17 16 17
11 13 15 16 16 14 13 12 10 9 8 8 9 6 5 5 4 4 5 5 0 2 2 5 3 3 2 3 6 10 5 11 13 15 16 17 18 19 20 19 19 20 17
12 14 15 16 15 13 15 14 11 12 11 9 8 7 5 4 4 5 4 4 6 3 3 4 3 3 3 4 7 5 6 11 15 16 17 17 19 21 21 21 22 19 17
13 15 16 17 16 15 15 14 11 11 12 8 7 9 6 4 5 5 5 4 4 5 4 5 5 5 5 5 7 7 6 11 14 20 18 17 18 21 21 20 18 20 19
15 14 16 16 17 16 15 15 14 13 14 11 7 10 9 7 5 5 4 3 4 4 5 4 4 4 3 5 6 5 6 6 6 19 21 21 19 21 20 19 18 22 22
19 10 12 16 17 17 16 17 16 14 15 13 11 10 10 7 7 6 5 6 5 5 5 7 3 3 4 4 4 6 7 7 7 15 22 24 22 20 18 20 18 20 20
15 15 11 16 18 18 17 16 16 15 15 14 12 12 10 8 7 5 5 5 4 4 4 3 4 3 4 3 5 5 6 9 9 19 23 25 23 23 21 18 19 21 20
15 15 11 21 19 19 18 17 16 14 13 12 11 10 10 10 9 7 6 6 4 3 3 2 3 4 4 5 4 7 9 7 9 9 16 20 21 22 24 23 24 23 22
9 13 11 22 19 18 15 16 16 14 14 12 10 11 9 11 16 12 5 6 6 3 3 3 4 3 5 5 6 6 8 9 10 8 11 11 10 11 12 20 20 20 20
9 10 10 18 17 13 24 26 19 14 14 13 12 8 8 16 16 17 14 14 9 5 5 4 5 6 9 8 7 8 6 9 14 9 13 12 11 12 11 10 19 20 19
6 9 12 15 17 17 26 27 25 13 13 12 11 9 8 8 10 6 12 13 10 8 8 5 5 6 10 10 5 9 13 13 15 12 11 13 10 12 11 11 21 20 20
8 6 14 15 16 14 26 27 26 14 11 11 11 10 8 7 7 7 6 4 4 4 5 5 7 9 7 10 11 12 15 16 15 13 12 13 10 11 9 10 21 18 18
11 5 13 13 15 15 27 27 21 14 11 10 9 8 8 8 13 13 7 5 4 5 7 13 16 21 23 24 23 12 12 12 14 13 8 8 10 8 7 7 7 19 17
13 5 14 12 18 16 25 27 20 11 11 9 7 7 17 11 14 11 6 6 4 5 5 6 7 10 14 16 24 14 12 13 14 12 11 8 7 5 4 5 7 7 8
Wind_Direction
172 170 187 189 200 185 174 166 171 167 148 120 98 95 94 117 132 131 130 122 117 108 90 78 74 72 65 62 62 52 46 40 37 34 35 27 287 226 217 221 220 220 222
173 179 183 192 191 186 177 169 173 173 176 140 138 129 128 127 143 148 149 134 131 121 101 82 73 75 70 66 58 43 36 35 29 27 27 24 11 7 259 226 221 223 226
180 178 180 186 196 188 177 159 184 138 138 153 178 187 166 154 147 158 155 162 144 133 121 99 82 74 73 61 52 43 34 31 27 20 11 360 1 357 3 339 239 228 226
180 177 178 190 193 182 173 160 165 154 181 180 186 220 211 181 169 161 159 163 165 160 152 137 108 101 89 59 43 33 24 23 13 5 1 352 349 345 349 343 0 262 235
179 174 185 197 188 178 172 172 166 148 173 191 204 207 208 210 196 163 181 165 177 170 182 220 177 214 220 323 9 19 358 0 0 353 350 349 346 340 337 336 337 330 328
178 176 191 189 178 171 179 171 157 175 164 186 219 215 259 233 204 184 194 197 187 185 188 189 201 252 202 233 248 314 276 310 352 342 346 340 332 333 328 324 323 322 324
188 177 182 184 183 183 186 179 157 179 200 151 86 338 300 244 225 205 177 195 192 202 200 204 203 214 248 261 272 290 284 293 330 329 333 335 332 324 317 320 320 317 315
186 180 177 189 186 172 186 189 168 146 190 178 145 104 310 328 308 233 208 209 197 176 202 217 208 205 216 214 230 255 254 286 278 288 320 319 321 321 318 313 314 309 306
188 190 181 179 186 185 195 194 182 168 167 216 195 147 107 224 334 339 226 204 181 172 198 215 205 210 214 213 228 219 197 204 265 296 293 301 307 308 309 307 304 302 301
197 194 186 181 185 189 192 201 188 175 139 175 215 195 143 147 165 328 350 275 223 194 195 243 243 223 213 215 224 210 220 245 270 269 279 290 301 300 301 301 301 296 294
197 195 190 185 185 188 203 190 188 187 174 154 159 143 143 117 121 131 217 282 333 259 215 213 233 242 252 227 228 234 237 237 245 248 277 284 289 290 293 294 291 291 292
200 198 194 192 194 191 188 196 196 194 188 161 170 169 162 164 190 151 152 229 210 276 262 256 261 247 253 243 249 250 252 244 244 257 264 273 277 287 284 286 287 291 295
217 198 192 192 190 196 193 185 185 196 191 194 176 188 169 173 149 145 131 195 203 288 293 276 255 258 295 297 276 286 286 288 277 269 271 277 279 278 286 285 284 279 281
230 209 200 198 199 192 192 187 188 192 186 192 186 181 178 180 163 156 153 144 354 296 313 244 275 256 247 269 267 292 280 275 280 282 279 282 281 280 279 277 281 280 275
246 215 201 199 196 190 194 189 189 190 189 189 191 179 169 183 169 166 154 152 154 188 265 271 234 246 276 273 267 263 263 272 282 288 288 284 282 280 278 278 277 276 279
258 219 208 200 195 193 191 186 191 185 182 187 183 177 177 165 171 172 171 168 165 165 219 206 239 239 255 275 267 271 262 275 292 293 284 286 283 281 275 272 273 282 274
297 235 212 202 196 192 192 189 191 182 188 183 181 184 184 168 176 178 176 168 170 159 210 268 232 229 247 253 276 279 272 274 273 276 282 281 277 270 265 260 264 270 269
302 276 221 208 197 194 193 191 188 187 184 185 187 184 189 184 184 178 176 189 182 192 190 249 250 269 250 267 254 274 276 279 266 267 275 274 273 268 254 255 261 265 260
314 309 314 223 203 194 195 192 191 186 188 186 183 186 184 166 179 180 188 198 199 222 205 202 255 240 253 245 274 272 254 268 264 270 273 271 267 261 258 255 266 263 246
313 301 320 270 212 192 191 188 185 184 183 183 184 182 179 179 178 185 190 196 192 196 200 218 246 249 241 260 230 267 278 262 262 265 266 260 263 266 265 260 260 255 244
315 302 286 295 215 192 184 183 180 178 174 176 178 185 184 184 193 190 167 175 174 193 217 240 262 261 269 273 238 261 270 277 269 254 255 249 250 248 250 260 258 255 246
295 310 284 290 220 196 188 183 173 171 177 175 180 179 172 189 193 190 200 185 188 201 225 211 252 260 271 262 272 277 276 285 284 245 257 256 245 246 237 233 236 239 241
266 308 284 287 219 206 186 180 172 169 169 176 172 167 173 183 185 188 220 229 241 264 254 224 237 259 275 279 275 280 274 269 271 272 269 268 252 246 230 231 231 226 234
258 281 286 287 219 207 185 177 171 161 162 165 166 164 162 163 169 161 162 181 223 251 265 270 260 262 255 281 273 272 278 279 275 265 250 260 253 244 221 216 217 225 227
268 264 281 269 233 202 182 174 158 156 153 156 154 155 157 154 169 166 169 195 235 269 285 290 293 297 301 298 292 296 281 278 274 268 250 245 250 229 198 190 203 217 208
269 244 275 255 243 194 178 171 152 150 150 150 148 156 161 160 184 184 162 182 232 261 277 282 284 296 290 282 292 284 278 266 266 272 237 230 175 151 159 154 185 187 167